Regional Weather Roundup
Issued by NWS

Home | Current Version | Previous Version | Text Only | Print | Product List | Glossary Off
Versions: 1 2 3 4 5 6 7 8 9 10 11 12 13 14 15 16 17 18 19 20 21 22 23 24 25 26 27 28 29 30 31 32 33 34 35 36 37 38 39 40 41 42 43 44 45 46 47 48 49 50

000
ASUS43 KOAX 310602
RWRNE

WEATHER ROUNDUP FOR NEBRASKA
NATIONAL WEATHER SERVICE OMAHA NE
1200 AM CST SAT JAN 31 2015

NOTES: SATELLITE DATA IS BEING USED TO AUGMENT CLOUD COVER ABOVE
       12000 FEET.
       "FAIR" INDICATES FEW OR NO CLOUDS BELOW 12,000 FEET WITH NO
       SIGNIFICANT WEATHER AND/OR OBSTRUCTIONS TO VISIBILITY.

  * THESE STATIONS DO NOT REPORT WEATHER SUCH AS RAIN...SNOW OR FOG.

NEZ001>004-019>022-054>056-310700-
NEBRASKA PANHANDLE

CITY           SKY/WX    TMP DP  RH WIND       PRES   REMARKS
SCOTTSBLUFF    CLOUDY    35  27  72 NW3       30.06F
6HR MIN TEMP:  33; 6HR MAX TEMP:  39;

ALLIANCE       CLOUDY    30  27  88 N6        30.06S WCI  24
6HR MIN TEMP:  30; 6HR MAX TEMP:  38;

CHADRON        CLOUDY    28  25  88 CALM      30.09F
6HR MIN TEMP:  28; 6HR MAX TEMP:  42;

SIDNEY         CLOUDY    31  26  82 CALM      30.04F
6HR MIN TEMP:  31; 6HR MAX TEMP:  40;

$$

NEZ057>060-069>072-079>082-310700-
SOUTHWEST NEBRASKA

CITY           SKY/WX    TMP DP  RH WIND       PRES   REMARKS
NORTH PLATTE   CLOUDY    38  33  82 S9        30.12F WCI  31
6HR MIN TEMP:  38; 6HR MAX TEMP:  44;

IMPERIAL       CLOUDY    37  31  78 S7        30.08F WCI  32
6HR MIN TEMP:  37; 6HR MAX TEMP:  44;

MCCOOK         MIX PCPN  36  33  89 S7        30.14F WCI  30
6HR MIN TEMP:  36; 6HR MAX TEMP:  42; 6HR PCP: TRACE;

$$

NEZ005>010-023>029-035>040-094-310700-
NORTH CENTRAL NEBRASKA

CITY           SKY/WX    TMP DP  RH WIND       PRES   REMARKS
VALENTINE      CLOUDY    31  26  82 CALM      30.09F
6HR MIN TEMP:  29; 6HR MAX TEMP:  41;

BROKEN BOW     CLOUDY    37  31  78 S12       30.14F WCI  29
6HR MIN TEMP:  37; 6HR MAX TEMP:  42;

ORD            CLOUDY    39  30  70 S12       30.15F WCI  32
6HR MIN TEMP:  38; 6HR MAX TEMP:  41;

$$

NEZ041-046>049-061>064-073>077-083>087-310700-
SOUTH CENTRAL NEBRASKA

CITY           SKY/WX    TMP DP  RH WIND       PRES   REMARKS
GRAND ISLAND   CLOUDY    38  32  79 SW15      30.22S WCI  29
6HR MIN TEMP:  38; 6HR MAX TEMP:  41;

HASTINGS       LGT RAIN  36  32  85 S10       30.22F WCI  28
6HR MIN TEMP:  36; 6HR MAX TEMP:  42; 6HR PCP: TRACE;

KEARNEY *      CLOUDY    36  30  80 S12       30.20F WCI  27
$$

NEZ011>018-030>034-042>045-310700-
NORTHEAST NEBRASKA

CITY           SKY/WX    TMP DP  RH WIND       PRES   REMARKS
NORFOLK        CLOUDY    36  27  69 SW5       30.16F WCI  32
6HR MIN TEMP:  36; 6HR MAX TEMP:  39;

COLUMBUS *     CLOUDY    39  27  60 SW10      30.21S WCI  32
TEKAMAH        CLOUDY    36  27  69 S14       30.21F WCI  27
6HR MIN TEMP:  30; 6HR MAX TEMP:  36;

$$

NEZ050>053-065>068-078-088>093-310700-
SOUTHEAST NEBRASKA

CITY           SKY/WX    TMP DP  RH WIND       PRES   REMARKS
LINCOLN        CLOUDY    38  27  64 S9        30.25F WCI  31
6HR MIN TEMP:  32; 6HR MAX TEMP:  38;

OMAHA EPPLEY   CLOUDY    37  26  64 S10       30.24F WCI  30
6HR MIN TEMP:  31; 6HR MAX TEMP:  37;

FALLS CITY     CLOUDY    34  23  64 S7        30.29F WCI  28
6HR MIN TEMP:  30; 6HR MAX TEMP:  34;

$$

NEZ044-045-051>053-067-310700-
OMAHA AREA

CITY           SKY/WX    TMP DP  RH WIND       PRES   REMARKS
OMAHA EPPLEY   CLOUDY    37  26  64 S10       30.24F WCI  30
6HR MIN TEMP:  31; 6HR MAX TEMP:  37;

OFFUTT AFB     CLOUDY    34  25  70 S7        30.25F WCI  28
$$


USA.gov is the U.S. government's official web portal to all federal, state and local government web resources and services.